When you browse on this site, cookies collect data to enhance your experience and personalize the content and advertising you see.
Visit our Privacy Policy to learn more. By continuing to use the site, you agree to this use of cookies and data.
  • In Hungary
  • List of Countries
  • For 7 days
  • Water Temperature
  • Weather Map
  • News
  • Weather Widgets
  • user-avatar
    Login

    Hourly Weather Katiusza

    Today, 6 December, Friday

    Time Temperature Precipitation Wind Pressure Humidity
    00:00 -3°C° 0 mm 4 mps 749 mmHg 71%
    01:00 -3°C° 0 mm 4 mps 748 mmHg 71%
    02:00 -3°C° 0 mm 4 mps 748 mmHg 71%
    03:00 -3°C° 0 mm 4 mps 747 mmHg 70%
    04:00 -3°C° 0 mm 4 mps 747 mmHg 70%
    05:00 -4°C° 0 mm 5 mps 747 mmHg 69%
    06:00 -4°C° 0 mm 5 mps 747 mmHg 67%
    07:00 -4°C° 0 mm 5 mps 747 mmHg 66%
    08:00 -2°C° 0 mm 5 mps 746 mmHg 61%
    09:00 -1°C° 0 mm 5 mps 746 mmHg 57%
    10:00 -1°C° 0 mm 6 mps 746 mmHg 52%
    11:00 +1°C° 0 mm 6 mps 746 mmHg 49%
    12:00 +2°C° 0 mm 5 mps 745 mmHg 45%
    13:00 +3°C° 0 mm 5 mps 745 mmHg 42%
    14:00 +2°C° 0 mm 5 mps 745 mmHg 45%
    15:00 +1°C° 0 mm 5 mps 744 mmHg 49%
    16:00 0°C° 0 mm 5 mps 744 mmHg 52%
    17:00 -1°C° 0 mm 5 mps 744 mmHg 53%
    18:00 -1°C° 0 mm 5 mps 743 mmHg 53%
    19:00 -1°C° 0 mm 5 mps 743 mmHg 53%
    20:00 -1°C° 0 mm 5 mps 743 mmHg 53%
    21:00 -1°C° 0 mm 5 mps 743 mmHg 53%
    22:00 -1°C° 0 mm 5 mps 742 mmHg 52%
    23:00 0°C° 0 mm 5 mps 742 mmHg 53%

    Tomorrow, 7 December, Saturday

    Time Temperature Precipitation Wind Pressure Humidity
    00:00 0°C° 0 mm 5 mps 742 mmHg 54%
    01:00 0°C° 0 mm 5 mps 741 mmHg 55%
    02:00 0°C° 0 mm 5 mps 741 mmHg 57%
    03:00 +1°C° 0 mm 5 mps 740 mmHg 59%
    04:00 +1°C° 0 mm 5 mps 740 mmHg 61%
    05:00 +2°C° 0 mm 6 mps 740 mmHg 65%
    06:00 +2°C° 0 mm 6 mps 740 mmHg 70%
    07:00 +2°C° 0 mm 6 mps 740 mmHg 74%
    08:00 +3°C° 0 mm 6 mps 740 mmHg 74%
    09:00 +4°C° 0 mm 7 mps 739 mmHg 75%
    10:00 +4°C° 0 mm 7 mps 739 mmHg 75%
    11:00 +5°C° 0.1 mm 7 mps 739 mmHg 78%
    12:00 +5°C° 0.1 mm 8 mps 739 mmHg 81%
    13:00 +5°C° 0.1 mm 8 mps 739 mmHg 83%
    14:00 +5°C° 0.4 mm 8 mps 739 mmHg 84%
    15:00 +5°C° 0.4 mm 7 mps 739 mmHg 85%
    16:00 +5°C° 0.4 mm 7 mps 740 mmHg 86%
    17:00 +5°C° 0.1 mm 7 mps 740 mmHg 84%
    18:00 +5°C° 0.1 mm 7 mps 740 mmHg 83%
    19:00 +5°C° 0.1 mm 7 mps 741 mmHg 82%
    20:00 +4°C° 0.2 mm 7 mps 741 mmHg 83%
    21:00 +4°C° 0.2 mm 7 mps 741 mmHg 84%
    22:00 +4°C° 0.2 mm 7 mps 741 mmHg 85%
    23:00 +4°C° 0.4 mm 6 mps 742 mmHg 86%

    Day after tomorrow, 8 December, Sunday

    Time Temperature Precipitation Wind Pressure Humidity
    00:00 +4°C° 0.4 mm 6 mps 742 mmHg 87%
    01:00 +4°C° 0.4 mm 6 mps 742 mmHg 88%
    02:00 +4°C° 0.1 mm 6 mps 742 mmHg 86%
    03:00 +4°C° 0.1 mm 6 mps 742 mmHg 84%
    04:00 +4°C° 0.1 mm 6 mps 742 mmHg 83%
    05:00 +5°C° 0 mm 5 mps 742 mmHg 83%
    06:00 +5°C° 0 mm 5 mps 742 mmHg 83%
    07:00 +5°C° 0 mm 5 mps 742 mmHg 83%
    08:00 +5°C° 0 mm 5 mps 742 mmHg 80%
    09:00 +5°C° 0 mm 5 mps 741 mmHg 77%
    10:00 +4°C° 0 mm 6 mps 741 mmHg 75%
    11:00 +5°C° 0 mm 6 mps 741 mmHg 72%
    12:00 +5°C° 0 mm 6 mps 740 mmHg 69%
    13:00 +6°C° 0 mm 7 mps 739 mmHg 67%
    14:00 +5°C° 0 mm 6 mps 739 mmHg 68%
    15:00 +5°C° 0 mm 6 mps 738 mmHg 69%
    16:00 +5°C° 0 mm 6 mps 738 mmHg 70%
    17:00 +5°C° 0.1 mm 6 mps 737 mmHg 73%
    18:00 +7°C° 0.1 mm 6 mps 737 mmHg 76%
    19:00 +7°C° 0.1 mm 6 mps 736 mmHg 78%
    20:00 +7°C° 0 mm 6 mps 736 mmHg 78%
    21:00 +6°C° 0 mm 7 mps 736 mmHg 78%
    22:00 +8°C° 0 mm 7 mps 735 mmHg 77%
    23:00 +8°C° 0 mm 7 mps 735 mmHg 77%

    9 December, Monday

    Time Temperature Precipitation Wind Pressure Humidity
    00:00 +8°C° 0 mm 7 mps 735 mmHg 77%
    01:00 +8°C° 0 mm 7 mps 735 mmHg 76%
    02:00 +7°C° 0.2 mm 5 mps 734 mmHg 79%
    03:00 +7°C° 0.2 mm 4 mps 734 mmHg 82%
    04:00 +7°C° 0.2 mm 3 mps 734 mmHg 86%
    05:00 +6°C° 0 mm 4 mps 734 mmHg 83%
    06:00 +5°C° 0 mm 4 mps 733 mmHg 79%
    07:00 +5°C° 0 mm 5 mps 733 mmHg 76%
    08:00 +5°C° 0 mm 5 mps 733 mmHg 75%
    09:00 +5°C° 0 mm 5 mps 733 mmHg 73%
    10:00 +6°C° 0 mm 5 mps 733 mmHg 71%
    11:00 +6°C° 0 mm 5 mps 733 mmHg 69%
    12:00 +5°C° 0 mm 6 mps 732 mmHg 66%
    13:00 +7°C° 0 mm 6 mps 732 mmHg 63%
    14:00 +5°C° 0 mm 6 mps 732 mmHg 66%
    15:00 +6°C° 0 mm 5 mps 732 mmHg 70%
    16:00 +5°C° 0 mm 5 mps 731 mmHg 74%
    17:00 +3°C° 0 mm 5 mps 731 mmHg 76%
    18:00 +3°C° 0 mm 5 mps 731 mmHg 79%
    19:00 +3°C° 0 mm 4 mps 731 mmHg 82%
    20:00 +3°C° 0 mm 4 mps 731 mmHg 82%
    21:00 +3°C° 0 mm 4 mps 731 mmHg 82%
    22:00 +4°C° 0 mm 4 mps 731 mmHg 82%
    23:00 +2°C° 0 mm 5 mps 731 mmHg 82%

    10 December, Tuesday

    Time Temperature Precipitation Wind Pressure Humidity
    00:00 +2°C° 0 mm 5 mps 731 mmHg 82%
    01:00 +2°C° 0 mm 6 mps 731 mmHg 83%
    02:00 +2°C° 0 mm 6 mps 732 mmHg 84%
    03:00 +2°C° 0 mm 6 mps 732 mmHg 85%
    04:00 +2°C° 0 mm 6 mps 733 mmHg 86%
    05:00 +2°C° 0.7 mm 6 mps 733 mmHg 86%
    06:00 +3°C° 0.7 mm 6 mps 734 mmHg 86%
    07:00 +3°C° 0.7 mm 6 mps 734 mmHg 85%
    08:00 +3°C° 0.2 mm 6 mps 735 mmHg 84%
    09:00 +3°C° 0.2 mm 7 mps 736 mmHg 82%
    10:00 +3°C° 0.2 mm 7 mps 737 mmHg 80%
    11:00 +3°C° 0.4 mm 7 mps 738 mmHg 79%
    12:00 +2°C° 0.4 mm 8 mps 739 mmHg 79%
    13:00 +2°C° 0.4 mm 8 mps 740 mmHg 78%
    14:00 +1°C° 0.4 mm 8 mps 741 mmHg 77%
    15:00 0°C° 0.4 mm 8 mps 742 mmHg 76%
    16:00 -1°C° 0.4 mm 8 mps 744 mmHg 76%
    17:00 -1°C° 0 mm 7 mps 745 mmHg 72%
    18:00 -2°C° 0 mm 6 mps 746 mmHg 69%
    19:00 -3°C° 0 mm 6 mps 747 mmHg 66%
    20:00 -2°C° 0 mm 5 mps 748 mmHg 67%
    21:00 -3°C° 0 mm 4 mps 748 mmHg 68%
    22:00 -2°C° 0 mm 3 mps 749 mmHg 69%
    23:00 -2°C° 0 mm 3 mps 749 mmHg 71%

    11 December, Wednesday

    Time Temperature Precipitation Wind Pressure Humidity
    00:00 -2°C° 0 mm 3 mps 749 mmHg 73%
    01:00 -2°C° 0 mm 2 mps 749 mmHg 74%
    02:00 -2°C° 0 mm 2 mps 748 mmHg 73%
    03:00 -4°C° 0 mm 3 mps 748 mmHg 72%
    04:00 -4°C° 0 mm 3 mps 747 mmHg 70%
    05:00 -3°C° 0 mm 4 mps 746 mmHg 65%
    06:00 -4°C° 0 mm 5 mps 746 mmHg 60%
    07:00 -4°C° 0 mm 6 mps 745 mmHg 55%
    08:00 -3°C° 0 mm 6 mps 744 mmHg 55%
    09:00 -3°C° 0 mm 6 mps 744 mmHg 55%
    10:00 -2°C° 0 mm 6 mps 743 mmHg 55%
    11:00 -2°C° 0 mm 6 mps 743 mmHg 60%
    12:00 -1°C° 0 mm 6 mps 742 mmHg 65%
    13:00 0°C° 0 mm 5 mps 741 mmHg 70%
    14:00 -1°C° 0.9 mm 6 mps 741 mmHg 79%
    15:00 -2°C° 0.9 mm 6 mps 741 mmHg 87%
    16:00 -2°C° 0.9 mm 6 mps 741 mmHg 95%
    17:00 -1°C° 0.6 mm 5 mps 741 mmHg 93%
    18:00 -1°C° 0.6 mm 5 mps 740 mmHg 90%
    19:00 0°C° 0.6 mm 4 mps 740 mmHg 87%
    20:00 0°C° 0.1 mm 4 mps 741 mmHg 88%
    21:00 0°C° 0.1 mm 4 mps 741 mmHg 89%
    22:00 0°C° 0.1 mm 5 mps 741 mmHg 90%
    23:00 0°C° 0 mm 5 mps 741 mmHg 88%
    Show more